Ephrata, WA
on Wednesday, January 30, 2013

Wednesday
Previous Day Next Day
Daily Summary
 ActualAverageRecord
Temperature
Mean Temperature °F 31°F  
Max Temperature 48°F 38°F 59°F (1989)
Min Temperature 23°F 24°F -18°F (1950)
Degree Days
Heating Degree Days 29 34  
Month to date heating degree days 1148 1088  
Since 1 July heating degree days 3403 3674  
Cooling Degree Days 0 0  
Month to date cooling degree days 0 0  
Year to date cooling degree days 0 0  
Moisture
Dew Point 28°F   
Average Humidity 73    
Maximum Humidity 92    
Minimum Humidity 54    
Precipitation
Precipitation 0.00 in 0.03 in 0.30 in (1995)
Month to date precipitation 0.18 0.89  
Year to date precipitation 0.18 0.89  
Wind
Wind Speed 5 mph   
Max Wind Speed 16 mph   
Max Gust Speed 28 mph   
Visibility 10 miles   
Events     

Key: T is trace of precipitation, MM is missing value
Source: NWS Daily Summary
Time(PST)TemperatureDew PointHumidity Pressure Visibility Wind DirectionWind SpeedGust SpeedPrecipitationEvents Conditions
12:53 AM 28.0°F 26.1°F 92% 30.17 in 10.0 miles NNE 8.1 mph - N/A   Clear
1:53 AM 26.1°F 25.0°F 96% 30.17 in 10.0 miles NNE 4.6 mph - N/A   Clear
2:53 AM 26.1°F 24.1°F 92% 30.17 in 10.0 miles Calm Calm - N/A   Clear
3:53 AM 25.0°F 23.0°F 92% 30.16 in 10.0 miles North 3.5 mph - N/A   Clear
4:53 AM 25.0°F 23.0°F 92% 30.15 in 10.0 miles North 6.9 mph - N/A   Clear
5:53 AM 24.1°F 21.9°F 91% 30.16 in 10.0 miles Calm Calm - N/A   Clear
6:53 AM 27.0°F 25.0°F 92% 30.16 in 10.0 miles Calm Calm - N/A   Clear
7:53 AM 28.0°F 25.0°F 88% 30.17 in 10.0 miles Variable 5.8 mph - N/A   Clear
8:53 AM 33.1°F 28.9°F 85% 30.18 in 10.0 miles Variable 3.5 mph - N/A   Clear
9:53 AM 37.0°F 30.0°F 76% 30.19 in 10.0 miles NNE 8.1 mph - N/A   Clear
10:53 AM 37.9°F 28.9°F 70% 30.22 in 10.0 miles North 8.1 mph - N/A   Clear
11:53 AM 42.1°F 30.0°F 62% 30.21 in 10.0 miles NNE 10.4 mph - N/A   Clear
12:53 PM 45.0°F 30.0°F 56% 30.19 in 10.0 miles NNE 4.6 mph - N/A   Clear
1:53 PM 48.0°F 32.0°F 54% 30.20 in 10.0 miles NNE 5.8 mph - N/A   Clear
2:53 PM 45.0°F 30.9°F 58% 30.21 in 10.0 miles NNE 5.8 mph - N/A   Clear
3:53 PM 44.1°F 30.9°F 60% 30.22 in 10.0 miles NNE 5.8 mph - N/A   Clear
4:53 PM 37.0°F 28.9°F 73% 30.24 in 10.0 miles NNE 8.1 mph - N/A   Clear
5:53 PM 35.1°F 28.9°F 78% 30.24 in 10.0 miles ENE 8.1 mph - N/A   Clear
6:53 PM 37.9°F 30.0°F 73% 30.24 in 10.0 miles WNW 9.2 mph - N/A   Clear
7:53 PM 34.0°F 28.0°F 79% 30.26 in 10.0 miles Calm Calm - N/A   Clear
8:53 PM 32.0°F 28.0°F 85% 30.25 in 10.0 miles NNE 3.5 mph - N/A   Clear
9:53 PM 30.9°F 28.0°F 89% 30.26 in 10.0 miles NE 4.6 mph - N/A   Clear
10:53 PM 30.9°F 28.0°F 89% 30.25 in 10.0 miles NNW 4.6 mph - N/A   Clear
11:53 PM 33.1°F 28.9°F 85% 30.26 in 10.0 miles Calm Calm - N/A   Overcast
Moon Phase
Jan. 30 Feb. 03 Feb. 10 Feb. 17 Feb. 25
Sunrise:07:25 AM (PST) Moon Rise:09:22 PM (PST)1/30
Sunset:04:57 PM (PST) Moon Set:08:37 AM (PST)1/30

Copyright © 2014 The Weather Underground, Inc.